RH
18 12 9 6 5 5 5 6 7 9 10 10 11 13 15 16 18 14 10 10 13 17 25 27 49 76 86 90 94 72 58 52 47 32 24 19 16 15 13 11 8 12 31 44 49 81 97
19 20 18 13 11 10 12 15 18 18 16 17 16 15 15 20 23 21 13 11 12 17 23 26 36 61 79 79 76 74 66 63 51 38 26 20 16 13 12 12 9 7 15 39 48 65 96
20 22 22 22 23 25 26 25 26 28 31 30 26 20 16 22 26 27 23 13 13 17 19 30 42 58 67 80 71 66 69 58 50 48 35 27 20 16 12 11 12 9 9 23 41 54 88
21 23 27 27 29 31 32 32 32 33 34 36 37 31 22 21 27 29 29 20 14 15 19 25 35 50 61 62 64 59 56 47 40 36 35 33 25 19 14 12 11 16 10 10 32 46 50
24 26 28 33 32 31 31 31 33 35 38 40 42 46 40 28 24 30 30 30 16 15 20 23 30 38 47 65 64 59 51 43 35 39 48 42 25 22 18 13 11 16 14 9 14 36 43
24 28 30 31 28 25 23 24 27 31 36 42 44 46 52 50 34 29 31 33 27 18 20 26 24 37 44 54 68 70 61 51 44 41 73 61 52 34 24 18 14 12 17 14 10 23 38
25 28 28 25 22 21 18 17 19 21 26 32 38 46 47 55 55 42 32 32 35 27 17 26 28 29 39 39 49 58 65 54 49 49 65 77 71 66 51 29 22 15 16 22 12 11 32
24 25 24 23 23 20 18 15 16 20 22 26 30 35 43 46 54 59 48 36 32 38 28 22 31 33 37 41 36 51 50 60 52 54 72 71 85 67 56 66 42 24 15 20 18 11 15
24 25 24 24 23 20 18 18 18 18 20 22 26 30 37 40 45 51 61 52 38 35 38 32 26 38 40 39 41 43 38 45 54 62 52 63 94 88 66 71 64 34 18 20 21 14 11
24 25 24 23 22 20 21 23 22 22 27 28 27 29 34 38 41 46 50 65 54 42 35 42 37 30 45 44 42 46 38 36 44 57 59 61 69 54 49 45 36 32 27 25 23 16 12
24 24 23 20 20 19 22 23 23 26 34 38 40 41 34 38 41 44 45 52 64 54 47 41 44 43 30 41 56 41 47 44 39 40 42 53 58 54 46 39 32 30 28 26 23 19 14
27 25 23 19 18 20 21 24 24 27 40 40 50 50 53 54 55 52 47 52 60 66 62 52 50 48 48 32 42 60 53 48 46 45 45 45 48 51 48 41 40 31 24 24 24 21 15
28 26 24 21 18 20 24 28 26 26 35 40 40 41 45 43 50 59 62 62 58 67 80 80 52 52 48 52 38 40 56 64 59 54 47 47 49 48 42 39 36 32 28 26 30 23 14
25 28 26 23 19 23 27 30 30 25 27 38 36 29 38 38 41 45 47 50 63 64 76 91 93 66 54 51 51 53 46 46 52 68 62 57 51 47 50 43 53 36 32 26 29 21 16
24 29 28 24 23 24 30 34 30 29 25 27 29 29 26 30 35 36 42 40 52 57 71 78 87 99 72 54 55 51 58 58 41 42 49 63 60 61 68 71 60 61 50 46 34 23 21
25 28 31 28 27 30 36 38 34 33 26 26 27 26 26 22 28 28 30 38 34 39 55 71 82 83 100 97 60 56 54 52 58 56 51 48 55 54 48 59 65 61 57 52 43 34 21
30 28 33 33 35 38 38 40 38 33 29 28 26 24 26 21 27 26 27 37 44 39 41 70 73 87 83 98 100 93 59 57 57 52 56 54 53 49 56 41 41 47 52 49 58 35 33
31 34 35 37 39 43 42 42 34 36 35 26 26 25 23 20 23 24 27 39 62 53 35 57 87 63 90 86 90 99 100 97 54 62 58 53 56 51 57 62 46 34 40 46 44 48 49
28 38 38 36 42 43 41 34 35 37 33 35 28 28 31 26 23 22 27 38 43 43 60 47 62 91 80 88 94 92 92 99 99 83 56 57 56 54 56 57 52 55 39 37 43 45 45
28 32 36 40 44 43 43 44 45 49 38 32 32 27 29 34 39 34 25 32 37 38 44 63 68 61 88 81 94 98 98 99 98 98 98 85 54 53 52 50 53 50 58 50 32 34 34
30 32 36 42 45 47 49 51 51 55 46 42 35 27 31 31 33 37 36 30 31 32 40 49 59 61 55 78 88 95 98 96 99 98 96 98 97 78 47 48 46 48 53 47 43 43 23
28 33 38 38 40 46 51 57 52 52 55 55 38 29 37 42 40 35 32 30 28 30 31 45 44 34 55 60 88 85 92 94 98 93 92 94 97 98 100 71 45 44 45 42 45 40 32
23 26 32 38 42 45 46 48 50 45 49 47 32 33 46 44 41 35 32 34 34 28 28 42 40 34 37 45 71 94 83 84 94 92 84 86 77 94 100 89 82 66 47 37 39 35 35
44 35 46 35 36 40 40 43 48 49 49 44 31 33 39 55 53 40 36 33 30 28 26 36 30 35 44 43 48 79 94 83 94 98 95 84 77 67 79 91 94 83 83 74 64 47 34
65 51 89 60 25 36 48 34 35 37 38 36 37 56 56 38 37 38 41 40 34 32 28 23 23 29 43 53 51 85 91 83 83 96 99 100 86 72 60 63 72 88 95 87 76 71 63
44 35 53 62 78 80 56 51 61 58 35 36 36 33 56 63 40 29 31 33 36 31 26 27 25 29 52 72 71 82 87 84 74 74 82 92 98 91 77 62 52 66 88 83 78 79 80
87 91 52 33 48 72 90 93 90 67 50 38 50 48 32 49 77 68 60 47 32 40 46 34 32 33 37 58 78 78 81 91 75 74 77 77 83 95 88 66 61 65 59 60 64 62 62
98 100 99 93 93 96 83 91 98 99 96 94 70 84 82 70 76 79 86 66 65 90 89 65 66 56 45 53 70 81 70 71 71 71 71 80 82 84 80 84 78 77 74 65 60 56 52
96 91 96 97 100 100 99 100 100 100 99 100 100 100 93 77 59 91 83 93 99 100 95 92 89 77 78 75 73 73 68 65 67 66 74 73 80 77 75 76 92 83 76 72 72 67 65
Wind_Speed
12 11 13 13 13 14 17 19 22 24 25 26 27 30 33 36 41 44 42 43 46 42 37 27 23 16 6 5 6 9 11 12 16 24 29 33 36 40 46 54 61 63 61 61 59 60 51
12 12 13 14 16 17 18 20 21 22 24 25 27 29 32 35 40 44 43 42 45 42 37 31 21 17 6 2 5 6 8 10 13 19 26 30 29 31 37 47 59 63 64 62 61 62 60
13 12 12 13 14 16 17 17 18 20 23 25 28 29 31 34 38 42 46 42 43 42 37 31 24 19 11 4 3 7 7 8 10 14 21 27 32 34 33 36 51 60 62 64 63 61 64
12 12 12 12 14 16 16 18 20 22 24 27 29 30 30 33 36 40 44 46 42 43 37 32 26 20 16 8 4 4 6 4 6 10 16 24 31 35 37 37 42 57 58 62 63 64 64
11 11 12 13 15 16 16 18 21 24 26 28 30 31 32 33 34 37 40 45 44 44 38 31 27 22 19 14 8 2 5 3 5 7 13 19 27 32 37 41 40 50 56 59 62 64 65
10 9 10 11 13 14 16 19 23 25 27 28 30 31 33 34 35 35 37 40 43 42 39 32 27 23 19 17 12 6 4 4 3 6 7 13 20 27 33 39 44 44 50 55 59 63 64
8 8 8 10 12 14 16 20 22 24 26 28 30 32 34 34 34 35 35 36 41 41 40 34 28 25 20 15 13 10 3 5 4 4 6 5 14 21 28 34 42 49 47 54 56 60 63
8 7 7 8 11 14 16 17 19 22 24 27 29 31 33 35 36 35 34 35 35 39 42 39 34 29 23 17 14 11 7 1 3 5 6 5 10 18 27 32 39 45 47 51 53 56 60
8 6 7 8 11 13 15 17 19 21 23 25 28 29 31 34 36 38 37 35 33 36 39 43 37 34 28 20 16 12 9 6 2 2 3 3 3 8 18 25 32 40 44 48 51 53 58
11 9 8 8 11 12 13 15 18 20 22 24 26 28 30 32 35 37 38 38 35 35 36 40 41 35 32 25 17 14 11 9 5 2 1 2 4 4 9 16 23 30 35 42 46 49 55
14 12 10 10 10 13 14 14 16 18 22 25 26 29 29 31 32 35 38 39 38 34 35 35 36 38 32 29 23 16 13 11 7 6 3 1 2 3 4 9 18 23 26 33 38 42 49
17 15 13 12 12 13 15 15 16 17 19 23 25 28 30 31 31 32 34 38 38 35 31 30 31 32 34 31 27 23 16 12 10 6 5 3 1 2 3 6 10 18 24 28 32 38 44
19 18 17 15 14 14 15 16 17 16 18 20 22 27 29 32 33 34 36 36 38 39 35 32 29 28 29 29 29 26 23 18 12 7 5 3 2 2 4 6 9 14 20 26 30 35 40
23 21 20 18 17 17 16 17 18 18 18 18 21 24 28 30 32 34 36 38 37 38 36 33 28 27 24 24 26 26 25 20 17 13 8 5 2 3 6 7 9 13 19 26 31 32 31
26 24 23 21 20 19 20 19 20 20 19 20 20 23 25 28 30 32 35 36 38 40 38 34 34 27 21 22 22 21 21 22 19 16 14 11 8 5 2 6 10 12 17 24 28 33 34
29 28 26 25 23 22 22 23 21 21 21 21 22 22 23 25 28 30 32 34 35 36 37 39 35 33 29 22 19 17 17 16 17 17 15 13 8 3 6 2 5 10 13 21 22 27 33
32 30 30 27 27 25 25 25 25 23 21 21 22 22 23 23 26 28 30 32 34 35 34 37 38 35 30 27 23 19 16 16 14 13 14 13 11 7 1 1 4 9 13 16 19 22 23
35 33 33 31 30 29 28 28 28 26 25 23 23 22 22 23 25 26 27 30 34 33 33 34 38 33 32 30 27 24 20 16 14 12 11 11 12 9 8 8 7 6 12 16 18 20 19
38 37 36 36 33 32 32 31 31 30 29 27 25 25 24 23 26 26 27 28 31 31 33 32 35 33 31 30 28 30 26 20 17 12 11 10 8 7 8 7 7 6 8 11 16 21 23
40 40 40 39 38 36 36 35 34 33 32 32 32 30 28 27 27 28 28 30 32 31 33 36 35 32 33 28 26 27 24 24 22 17 12 9 11 9 8 7 6 7 10 13 12 16 19
42 42 43 43 42 42 40 39 39 37 36 36 36 35 31 31 30 30 30 33 32 33 32 36 35 36 35 35 26 25 21 20 20 20 19 13 9 11 12 10 7 8 7 11 12 10 10
44 46 45 45 46 45 44 43 42 42 41 39 41 39 38 35 35 34 33 32 33 34 35 36 37 39 38 39 34 27 21 22 18 16 16 16 14 8 10 13 9 6 10 10 7 9 10
49 47 47 48 48 48 48 47 46 46 46 45 43 44 44 40 39 39 37 38 36 38 35 37 39 39 41 40 38 36 29 23 21 19 15 14 15 12 6 12 11 6 9 8 8 9 11
50 49 49 50 51 51 52 51 50 50 52 50 47 47 50 47 46 42 42 41 40 41 41 39 40 41 41 44 40 38 33 27 23 21 21 18 14 14 12 13 10 9 10 13 12 14 13
55 57 58 56 54 53 54 54 53 52 56 54 53 53 55 54 51 47 47 47 45 44 45 44 41 45 45 47 45 40 32 30 26 22 21 22 20 18 15 15 15 15 13 14 16 18 18
61 59 59 61 64 62 61 60 58 59 58 58 58 58 61 64 54 52 50 50 51 49 47 46 45 47 47 46 46 44 38 30 28 25 24 22 24 25 23 18 16 15 21 23 23 22 25
66 61 60 65 65 70 66 68 66 64 64 62 63 66 65 71 63 61 57 56 54 52 55 51 48 50 49 49 47 44 42 36 32 27 26 27 28 25 28 26 16 18 21 23 25 27 28
49 53 56 63 70 68 66 67 67 70 74 71 68 71 72 76 69 66 62 57 57 60 58 55 57 52 50 50 49 43 42 40 35 30 31 29 30 29 31 28 23 23 25 25 26 28 27
47 49 52 53 53 58 60 64 67 69 67 71 72 72 70 67 63 60 58 60 57 56 56 57 57 53 55 53 49 46 41 39 37 31 30 30 28 31 31 30 31 33 32 33 33 34 33
Wind_Direction
337 332 329 329 330 327 328 333 337 341 343 345 351 357 3 8 12 12 6 7 6 4 3 359 0 4 39 134 193 200 211 216 219 215 217 216 211 211 213 212 213 214 214 214 212 211 217
345 336 329 330 331 328 337 346 350 352 353 356 357 2 6 8 14 15 11 8 9 8 7 5 5 358 355 219 188 190 210 215 217 214 217 219 213 212 214 214 213 213 214 215 214 212 216
350 347 345 342 344 352 2 6 8 11 10 9 6 7 8 9 12 14 14 11 12 11 12 7 14 18 5 317 241 204 200 210 214 215 217 215 216 216 215 213 215 216 216 215 213 213 218
359 355 2 8 16 23 24 23 19 20 19 17 12 11 11 11 11 13 12 14 13 15 14 9 12 21 23 16 337 244 217 225 235 224 217 216 216 215 216 216 215 218 217 215 215 212 216
7 7 19 27 32 27 26 27 24 23 22 20 17 16 17 15 13 13 13 15 16 17 14 11 9 14 22 23 11 292 218 246 262 249 235 225 218 217 217 218 218 221 218 218 215 215 216
6 12 27 33 29 21 17 22 22 21 22 21 18 17 19 19 16 15 14 16 19 19 18 13 13 14 17 22 22 11 238 239 256 266 267 238 227 221 220 220 219 222 219 218 217 216 218
356 1 20 23 18 12 15 16 17 15 17 21 18 16 18 20 19 16 17 18 20 23 24 22 18 18 16 21 20 24 357 252 244 268 276 248 228 225 223 221 216 218 216 217 217 216 218
325 344 353 10 9 4 9 12 14 17 16 17 16 15 15 19 22 20 18 19 19 24 28 28 24 25 20 19 31 32 29 315 251 240 257 265 243 234 234 223 217 216 217 217 216 217 218
298 313 322 348 351 0 4 8 11 14 14 13 13 13 16 17 19 22 20 19 21 23 28 32 31 27 25 25 29 38 42 48 28 295 241 261 226 208 219 215 216 215 216 217 217 217 218
277 290 300 324 334 346 354 2 6 7 8 9 9 10 12 15 15 18 22 20 18 22 27 32 34 32 27 27 30 32 44 45 69 71 271 205 187 197 207 204 208 211 214 220 219 218 220
267 274 286 301 317 328 338 349 358 1 4 6 5 4 7 13 17 16 17 20 19 19 25 27 30 34 33 28 28 31 38 40 47 72 74 119 167 156 190 207 200 204 209 218 221 221 221
258 268 277 288 302 313 323 333 344 352 357 4 8 10 8 10 10 11 12 13 18 23 27 25 26 30 32 34 32 29 32 36 34 49 81 81 79 192 192 208 214 216 208 216 221 222 222
249 261 270 277 288 297 310 320 329 337 344 353 1 5 8 9 14 13 14 12 14 23 23 21 21 26 28 30 36 35 33 35 38 35 39 78 120 198 217 215 213 217 221 215 217 221 222
247 253 262 271 277 287 296 307 316 323 330 338 345 354 359 5 9 8 12 13 18 20 24 22 19 18 22 24 29 35 34 28 30 35 50 17 306 265 254 239 221 217 214 221 221 225 222
244 249 258 265 273 279 286 296 305 312 317 324 334 340 350 351 358 3 5 8 14 15 16 21 21 19 16 20 25 27 29 32 31 27 25 29 39 29 296 253 236 222 215 219 225 227 224
245 249 253 261 265 274 281 290 297 304 310 315 321 329 339 344 349 354 359 1 4 9 12 10 14 17 16 13 16 19 22 23 29 28 25 11 357 37 45 342 248 240 222 219 221 229 232
247 250 253 257 266 270 277 285 291 296 301 307 313 321 327 333 340 345 350 353 355 360 4 7 7 8 11 16 10 7 14 11 12 19 19 16 3 332 284 145 270 244 231 225 219 224 227
248 250 255 258 263 269 275 280 286 289 293 298 303 309 316 323 327 332 339 343 346 351 352 359 1 1 6 6 10 15 358 2 0 2 1 9 13 3 334 295 224 229 235 225 218 217 217
248 250 256 259 261 266 271 275 280 284 288 291 296 302 306 313 315 320 326 331 336 342 345 345 352 357 356 358 4 359 3 6 346 353 349 348 349 350 336 336 298 240 219 244 227 215 212
247 251 255 259 262 264 268 272 274 280 284 288 292 293 296 301 306 312 315 321 326 330 336 340 340 345 351 355 350 357 351 349 354 344 339 342 325 326 312 318 315 295 251 219 230 230 224
250 254 256 259 260 263 266 270 274 276 279 285 289 292 292 296 299 303 309 314 317 319 325 330 334 335 333 343 345 344 342 342 338 339 339 334 318 324 312 304 299 286 278 272 261 235 231
252 253 256 259 262 263 266 269 271 274 278 280 285 288 289 291 296 298 303 306 309 311 316 321 322 327 325 330 336 331 338 330 327 326 329 331 325 326 302 310 301 272 273 279 284 263 242
251 253 256 259 261 265 266 268 270 275 276 278 281 283 285 289 291 294 297 298 304 304 306 310 315 319 319 321 326 329 323 324 320 317 317 311 311 315 285 301 314 296 267 268 258 257 257
249 254 256 261 261 262 265 266 268 271 275 276 278 280 284 287 288 290 292 292 294 298 300 302 307 309 311 313 315 317 318 316 316 308 305 302 295 302 296 295 280 277 279 276 264 252 248
249 251 253 254 259 261 265 268 270 271 271 274 275 277 279 282 283 286 286 288 291 293 296 297 299 302 306 308 309 310 311 305 305 301 296 293 294 292 289 279 277 273 259 254 256 262 265
248 249 254 257 257 259 259 261 263 268 271 271 273 274 274 275 281 281 281 283 287 289 289 292 294 295 299 302 301 302 303 301 298 297 294 288 283 287 284 276 278 264 264 261 260 256 257
253 254 257 259 259 265 266 262 263 265 266 267 270 272 275 276 277 279 282 283 284 285 287 287 287 287 293 298 294 296 294 292 290 288 283 285 283 282 282 285 276 265 267 264 262 263 263
266 267 268 268 267 265 267 270 272 270 269 271 272 274 271 275 279 281 282 281 282 286 284 282 283 288 288 289 288 290 286 288 288 283 283 282 285 286 281 281 282 277 272 267 268 270 268
258 259 262 262 265 265 267 269 271 272 273 274 274 274 274 275 276 278 279 283 283 281 281 279 280 284 288 286 283 279 281 281 284 283 277 280 282 285 289 292 290 283 279 279 279 278 278